Location: Gudip?du
(17.0263°N, 80.8301°E)
Time: 01:50:10
(UTC+00:00)

CENTAUR R/B - Pass Details

Date: 03 August 2024
Orbit: 663 x 1521 km, 63.4° (Epoch: 12 September)

Event Time Altitude Azimuth Distance (km) Brightness Sun altitude
Rises 16:59:35 0° 334° (NNW) 4,511 6.6 -47.3°
Reaches altitude 10° 17:02:27 10° 335° (NNW) 3,596 5.9 -47.8°
Enters shadow 17:07:18 37° 334° (NNW) 2,174 4.4 -48.4°
